This is the latest recevied weather packets stored in our database for station/object HB9TJM-8. If no packets are shown the sender has not sent any weather packets the latest 10 day(s).
| Time | Temp. | Humidity | Pressure | Rain* | Wind** | Luminosity | Snow |
|---|---|---|---|---|---|---|---|
| 1777746971 | 16.67° C | 54% | 1018.8 hPa | 0 mm | - | 5 W/m² | - |
| 1777746356 | 16.11° C | 53% | 1018.8 hPa | 0 mm | - | 11 W/m² | - |
| 1777746049 | 16.11° C | 51% | 1018.7 hPa | 0 mm | - | 15 W/m² | - |
| 1777745741 | 17.22° C | 47% | 1018.3 hPa | 0 mm | - | 20 W/m² | - |
| 1777745434 | 16.67° C | 47% | 1018.6 hPa | 0 mm | - | 27 W/m² | - |
| 1777745126 | 17.22° C | 42% | 1018.9 hPa | 0 mm | - | 32 W/m² | - |
| 1777744819 | 17.78° C | 42% | 1018.4 hPa | 0 mm | - | 37 W/m² | - |
| 1777744511 | 17.22° C | 40% | 1018.6 hPa | 0 mm | - | 40 W/m² | - |
| 1777742973 | 17.78° C | 43% | 1018.9 hPa | 0 mm | - | 50 W/m² | - |
| 1777742666 | 18.33° C | 41% | 1019 hPa | 0 mm | - | 52 W/m² | - |
| 1777742359 | 18.33° C | 41% | 1018.8 hPa | 0 mm | - | 59 W/m² | - |
| 1777742052 | 18.33° C | 38% | 1018.7 hPa | 0 mm | - | 70 W/m² | - |
| 1777741744 | 18.89° C | 39% | 1018.7 hPa | 0 mm | - | 79 W/m² | - |
| 1777741129 | 18.89° C | 38% | 1018.8 hPa | 0 mm | - | 87 W/m² | - |
| 1777739285 | 19.44° C | 33% | 1018.8 hPa | 0 mm | - | 97 W/m² | - |
| 1777738669 | 20° C | 34% | 1018.7 hPa | 0 mm | - | 116 W/m² | - |
| 1777738669 | 20° C | 34% | 1018.7 hPa | 0 mm | - | 116 W/m² | - |
| 1777738054 | 20° C | 35% | 1019.1 hPa | 0 mm | - | 106 W/m² | - |
| 1777737131 | 20° C | 38% | 1019.7 hPa | 0 mm | - | 127 W/m² | - |
| 1777735900 | 20° C | 47% | 1019.4 hPa | 0 mm | - | 144 W/m² | - |
| 1777735899 | 20° C | 47% | 1019.4 hPa | 0 mm | - | 144 W/m² | - |
| 1777735592 | 20.56° C | 45% | 1019.4 hPa | 0 mm | - | 144 W/m² | - |
| 1777735285 | 20.56° C | 46% | 1019.3 hPa | 0 mm | - | 190 W/m² | - |
| 1777735284 | 20.56° C | 46% | 1019.3 hPa | 0 mm | - | 190 W/m² | - |
| 1777734976 | 20.56° C | 44% | 1019.9 hPa | 0 mm | - | 194 W/m² | - |
* Rain latest hour (hover to see other rain measurements)
** Current wind speed in m/s (hover to see current wind gust speed)